Weather Roundup
Issued by NWS

Home | Current Version | Previous Version | Graphics & Text | Print | Product List | Glossary Off
Versions: 1 2 3 4 5 6 7 8 9 10 11 12 13 14 15 16 17 18 19 20 21 22 23 24 25 26 27 28 29 30 31 32 33 34 35 36 37 38 39 40 41 42 43 44 45 46 47 48 49 50

925
NZUS93 KARX 102010
HRRWXR

CURRENT HOURLY OBSERVATIONS ACROSS
MUCH OF THE UPPER MISSISSIPPI VALLEY
NATIONAL WEATHER SERVICE LA CROSSE WI
200 PM CST SUN DEC 10 2017


...SOUTHEAST MINNESOTA...


CITY           SKY/WX    TMP DP  RH WIND       PRES   REMARKS
ROCHESTER      CLOUDY    28  21  75 NW16      29.99R WCI  16
ROCHESTER/MAYO CLOUDY    28  21  74 NW14      30.00R WCI  17
WINONA         CLOUDY    30  21  69 NW9G17    30.02R WCI  22
AUSTIN         CLOUDY    30  21  69 NW10      29.99S WCI  21
ALBERT LEA     CLOUDY    30  21  69 NW7       30.00S WCI  23
DODGE CENTER   CLOUDY    28  21  74 NW9       29.99R WCI  20
PRESTON        CLOUDY    27  20  75 NW13      29.99R WCI  16
OWATONNA       NOT AVBL
FARIBAULT      CLOUDY    28  23  80 NW7       30.02S WCI  21
$$

...ELSEWHERE IN MINNESOTA...


CITY           SKY/WX    TMP DP  RH WIND       PRES   REMARKS
MINNEAPOLIS    CLOUDY    29  22  75 NW12      30.01F WCI  19
INTNL FALLS    CLOUDY    17   9  70 NW5       29.99F HAZE    WCI  10
DULUTH         PTSUNNY   20  13  74 NW13      29.95R WCI   7
RED WING       CLOUDY    30  19  64 NW8       30.00F WCI  23
REDWOOD FALLS  SUNNY     36  22  56 NW10      30.03S WCI  28
MANKATO        CLOUDY    30  23  75 N10       30.02F WCI  21
WORTHINGTON    SUNNY     38  27  64 NW16      30.04R WCI  29
FAIRMONT       SUNNY     35  24  64 NW16      30.02S WCI  25
$$

...SOUTHWEST WISCONSIN...


CITY           SKY/WX    TMP DP  RH WIND       PRES   REMARKS
LA CROSSE      CLOUDY    30  21  69 NW9       30.00R WCI  22
PRAIRIE DU CHI CLOUDY    32  21  64 NW9       29.99R WCI  24
BOSCOBEL       CLOUDY    31  21  66 NW6       29.98R WCI  25
LONE ROCK      CLOUDY    30  21  69 NW12      29.96R WCI  20
PLATTEVILLE    CLOUDY    31  24  77 NW10      29.95S WCI  22
FORT MC COY    CLOUDY    27  21  76 NW13      29.98R WCI  17
CAMP DOUGLAS   CLOUDY    28  19  69 NW9       29.94S WCI  20
MAUSTON-NEW LI CLOUDY    28  20  74 NW10      29.94R WCI  18
VIROQUA        CLOUDY    27  23  84 NW9       29.94R WCI  18
WIS DELLS      CLOUDY    28  19  68 NW6       29.92S WCI  22
$$

...ELSEWHERE IN WISCONSIN...


CITY           SKY/WX    TMP DP  RH WIND       PRES   REMARKS
MILWAUKEE      CLOUDY    28  20  71 NW12      29.90R WCI  18
MADISON        CLOUDY    29  19  66 NW9       29.92R WCI  20
GREEN BAY      CLOUDY    26  19  74 NW14      29.91R WCI  14
EAU CLAIRE     CLOUDY    26  17  68 NW7       29.98R WCI  18
BLACK RVR FLS  CLOUDY    28  18  67 NW9       29.97R WCI  19
MEDFORD        CLOUDY    21  17  84 NW9G16    29.90R WCI  11
WAUSAU         CLOUDY    23  17  78 NW12      29.89S WCI  12
WIS RAPIDS     CLOUDY    25  18  74 NW13      29.94R WCI  14
MARSHFIELD     CLOUDY    24  18  77 NW10      29.91S WCI  14
RICE LAKE      CLOUDY    26  18  72 CALM      29.99R
$$

...NORTHEAST IOWA...


CITY           SKY/WX    TMP DP  RH WIND       PRES   REMARKS
WATERLOO       SUNNY     37  22  54 NW14      30.00R WCI  28
DUBUQUE        CLOUDY    31  22  69 N10       29.95R WCI  22
DECORAH        CLOUDY    28  21  74 NW13      29.97R WCI  18
MASON CITY     SUNNY     36  22  56 N15       30.02R WCI  27
CHARLES CITY   MOSUNNY   34  23  64 N13G20    30.00R WCI  25
OELWEIN        CLOUDY    32  23  69 NW13G21   29.99R WCI  22
$$

...ELSEWHERE IN IOWA...


CITY           SKY/WX    TMP DP  RH WIND       PRES   REMARKS
DES MOINES     CLOUDY    47  25  42 NW16      30.03S
IOWA CITY      SUNNY     41  24  51 NW13G20   30.02R
FORT DODGE     SUNNY     43  25  49 NW10G20   30.03R
MARSHALLTOWN   SUNNY     40  24  53 NW15      30.01R WCI  32
CEDAR RAPIDS   SUNNY     39  24  55 NW15      29.98R WCI  31
$$

...NORTHERN ILLINOIS...


CITY           SKY/WX    TMP DP  RH WIND       PRES   REMARKS
CHICAGO-OHARE  CLOUDY    33  20  58 NW13      29.89R WCI  24
CHICAGO-MIDWAY PTSUNNY   35  21  56 NW14      29.90R WCI  26
MOLINE         SUNNY     40  25  55 NW17G23   29.96R WCI  31
ROCKFORD       CLOUDY    32  20  61 NW12      29.95R WCI  23
PEORIA         SUNNY     41  24  51 NW13G23   29.95R
$$

NOTE: "FAIR" INDICATES FEW OR NO CLOUDS BELOW 12,000 FEET WITH NO
SIGNIFICANT WEATHER AND/OR OBSTRUCTIONS TO VISIBILITY. WIND
SPEEDS ARE IN MILES-PER-HOUR.




USA.gov is the U.S. government's official web portal to all federal, state and local government web resources and services.